Simultaneous Nadir Overpasses (SNOs) Predictions

Prediction of SNOs between GOES-16 and TERRA Satellite Orbit:

Table of predicted SNOs for the next 14.0 days since TLE Epoch: 5/25/2019
Index Date Time (GOES-16) GOES-16 Lat,Lon TERRA Lat,Lon Distance(km) Time Diff (sec)
1 05/25/2019 03:48:32 -0.01, -75.18 0.00, -79.19 446.82 80
2 05/26/2019 15:12:03 -0.01, -75.20 -0.94, -70.88 492.00 80
3 05/27/2019 03:36:07 0.01, -75.19 -0.17, -76.07 100.24 80
4 05/29/2019 03:21:15 0.02, -75.20 0.44, -73.11 237.31 80
5 05/29/2019 15:42:31 -0.02, -75.22 0.62, -78.27 346.51 80
6 05/31/2019 15:32:59 -0.01, -75.24 -0.00, -75.31 8.05 80
7 06/02/2019 15:18:07 -0.01, -75.26 -0.62, -72.35 330.60 80
8 06/03/2019 03:42:11 0.01, -75.25 -0.49, -77.54 261.03 80
9 06/05/2019 03:27:20 0.02, -75.27 0.19, -74.60 77.44 80
10 06/07/2019 03:15:08 0.03, -75.29 0.81, -71.64 415.97 80
11 06/07/2019 15:39:03 -0.03, -75.32 0.31, -76.79 167.75 80




NCC Satellite Simultaneous Nadir Overpasses (SNOs) Prediction Service
